User: anonymous   Login
Location: Banksville Park
(38.5557°N, 75.1182°W)
Time: 15:08:54
(UTC+00:00)
Language:

Cosmos 540 Rocket - Orbit

View from above orbital plane
View from above orbital plane
View from above satellite
View from above satellite

Ground track
Ground track

The orbit data is extracted from the following two-line orbital elements,

1 06324U 72104B   20339.90456915  .00000050  00000-0  22710-4 0  9996
2 06324  74.0773 278.2193 0007741  92.4199 267.7844 14.43507876518074
Epoch (UTC): 04 December 2020 21:42:34
Eccentricity: 0.0007741
inclination: 74.0773°
perigee height: 741 km
apogee height: 752 km
right ascension of ascending node: 278.2193°
argument of perigee: 92.4199°
revolutions per day: 14.43507876
mean anomaly at epoch: 267.7844°
orbit number at epoch: 51807

The dashed part of the orbit path shows where the satellite is in the earth's shadow,  

DLR